This demonstration page uses our WeatherBlox Daily Observations layout. Learn more.

Hourly Observations for August 4, 2017

Temp ( °F °C ) Dew Point ( °F °C ) Humidity (%) Winds ( mph kmh ) Pressure ( in mb ) Visibility ( mi km ) Precip ( " mm )
12:54 am 00:54 Clear 56 13.3 52 11.1 87 87 N 6 9 30.18 1022 10 16.0934 0 0
1:54 am 01:54 Clear 52 11.1 49 9.4 89 89 N 5 7 30.18 1022 10 16.0934 0 0
2:54 am 02:54 Clear 51 10.6 49 9.4 92 92 N 3 6 30.19 1022 10 16.0934 0 0
3:54 am 03:54 Clear 53 11.7 51 10.6 93 93 Calm 30.18 1022 10 16.0934 0 0
4:54 am 04:54 Clear 50 10 48 8.9 93 93 N 5 7 30.18 1022 10 16.0934 0 0
5:54 am 05:54 Clear 53 11.7 49 9.4 86 86 Calm 30.17 1022 10 16.0934 0 0
6:54 am 06:54 Sunny 52 11.1 50 10 93 93 Calm 30.18 1022 10 16.0934 0 0
7:54 am 07:54 Sunny 56 13.3 52 11.1 87 87 Calm 30.18 1022 10 16.0934 0 0
8:54 am 08:54 Sunny 63 17.2 54 12.2 73 73 WSW 6 9 30.19 1022 10 16.0934 0 0
9:54 am 09:54 Sunny 68 20 54 12.2 61 61 W 7 11 30.18 1022 10 16.0934 0 0
10:54 am 10:54 Sunny 71 21.7 51 10.6 49 49 W 6 9 30.17 1022 10 16.0934 0 0
11:54 am 11:54 Partly Cloudy 72 22.2 50 10 46 46 Calm 30.17 1022 10 16.0934 0 0
12:54 pm 12:54 Partly Cloudy 74 23.3 51 10.6 45 45 VRB 5 7 30.15 1021 10 16.0934 0 0
1:54 pm 13:54 Mostly Sunny 75 23.9 50 10 41 41 WSW 6 9 30.14 1021 10 16.0934 0 0
2:54 pm 14:54 Sunny 75 23.9 51 10.6 43 43 SSW 5 7 30.11 1020 10 16.0934 0 0
3:54 pm 15:54 Sunny 76 24.4 50 10 40 40 SSW 6 9 30.09 1019 10 16.0934 0 0
4:54 pm 16:54 Sunny 78 25.6 49 9.4 36 36 Calm 30.07 1018 10 16.0934 0 0
5:54 pm 17:54 Sunny 77 25 48 8.9 36 36 SW 6 9 30.04 1017 10 16.0934 0 0
6:54 pm 18:54 Sunny 76 24.4 51 10.6 42 42 SSE 6 9 30.03 1017 10 16.0934 0 0
7:54 pm 19:54 Sunny 72 22.2 52 11.1 50 50 S 8 13 30.03 1017 10 16.0934 0 0
8:54 pm 20:54 Clear 70 21.1 51 10.6 51 51 S 6 9 30.03 1017 10 16.0934 0 0
9:54 pm 21:54 Clear 67 19.4 52 11.1 59 59 S 7 11 30.03 1017 10 16.0934 0 0
10:54 pm 22:54 Partly Cloudy 64 17.8 53 11.7 68 68 S 8 13 30.04 1017 10 16.0934 0 0
11:54 pm 23:54 Cloudy 65 18.3 54 12.2 68 68 SE 5 7 30.04 1017 10 16.0934 0 0

Powered by AerisWeather